Weather in Cornwall

Canada     45°01′18″N   74°42′57″W
temp.,
°C
wind,
m/s
gust,
m/s
humid.,
%
clouds,
%
prec.,
mm/h
press.,
hPa
HPBL,
m
28 june, tue
tue2823:00+14w389096 0.3 1016223
02:00+13wsw269571 0.3 1017160
05:00+13w2493100 0.0 1018140
08:00+15wnw237981 0.0 1020384
11:00+20wnw22550 0.5 10201391
14:00+22nw455022 0.5 10201871
17:00+22wsw35581 0.0 10201474
20:00+18sw38740 0.0 1020290
29 june, wed
wed2923:00+15ssw412670 0.0 1021363
02:00+12ssw39760 0.0 1021218
05:00+10ssw397629 0.0 1022186
08:00+16sw387296 0.0 1022346
11:00+22wsw575376 0.0 10201256
14:00+22w5863100 0.4 10201518
17:00+16sw21096100 2.5 1021540
20:00+15sw399599 2.8 1021325
30 june, thu
thu3023:00+13sw289820 0.3 1021193
02:00+12wsw239932 0.3 102265
05:00+11sw2299100 0.0 102226
08:00+14sw1295100 0.0 1024260
11:00+21wsw126189 0.0 1023904
14:00+24wsw13455 0.0 10211485
17:00+24wsw3552100 0.0 10181164
20:00+19s346986 0.0 101873
1 july, fri
fri123:00+16ssw356290 0.0 101780
02:00+20sw41560100 0.0 1015507
05:00+21sw51563100 0.0 1014679
08:00+22sw51470100 0.0 1013715
11:00+26sw71363100 0.0 10121143
14:00+27sw71356100 0.0 10101466
17:00+26sw71562100 0.0 10101627
20:00+21sw71668100 0.1 1011802
2 july, sat
sat223:00+20sw41274100 0.3 1010473
02:00+18sw51298100 2.8 1010612
05:00+18sw41097100 0.4 1010591
08:00+17wsw510870 0.4 1013599
11:00+20w68570 0.0 1014960
14:00+23wnw610490 0.0 10141751
17:00+23wnw37540 0.0 10141112
20:00+19sw34750 0.0 101567